UAE88 LSZH-OMDB

Flight info

Callsign UAE88
Flight time N/A
Altitude 35000
Route DEGES Z2 TUNUM Z204 GEDSO DCT VEKEN/N0486F370 DCT TUPUS DCT MODRA DCT ERANA DCT TSL UN130 PIVOS/N0484F390 UN130 MES UL609 RDS DCT VANZA DCT LAKTO L560 SERMA L550 KARIK B411 DEESA Y415 NIMAR G662 KSA M321 RESAL T533 RAPMA DCT KUVSO DCT RIBOT M550 GOLGU DCT UKRAG G783 ELUDA/N0473F350 G783 ASPED Q308 KIPOK Q568 IMPED
Aircraft A388/J-SADE2E3FGHIJ3J4J5M1RWXY/LB1D1

Departure

Time 2026-04-30 08:39
Airport Zürich Airport (LSZH)

Arrival

Time N/A
Airport Dubai International Airport (OMDB)
Time Latitude Longitude Altitude Speed Heading
2026-04-30 08:02 47.46199 8.55098 1398 ft 0 kts 155°
2026-04-30 08:26 47.46201 8.55097 1398 ft 1 kts 155°
2026-04-30 08:26 47.46216 8.55086 1408 ft 3 kts 156°
2026-04-30 08:27 47.46235 8.55075 1407 ft 3 kts 160°
2026-04-30 08:27 47.46253 8.55065 1407 ft 3 kts 156°
2026-04-30 08:27 47.46271 8.55052 1407 ft 3 kts 140°
2026-04-30 08:27 47.46284 8.55031 1406 ft 3 kts 117°
2026-04-30 08:28 47.46291 8.55004 1406 ft 3 kts 98°
2026-04-30 08:28 47.46293 8.54974 1406 ft 2 kts 96°
2026-04-30 08:28 47.46295 8.54950 1405 ft 3 kts 96°
2026-04-30 08:28 47.46297 8.54920 1405 ft 3 kts 95°
2026-04-30 08:29 47.46299 8.54890 1405 ft 3 kts 95°
2026-04-30 08:29 47.46301 8.54863 1404 ft 2 kts 95°
2026-04-30 08:29 47.46302 8.54846 1404 ft 3 kts 89°
2026-04-30 08:29 47.46299 8.54818 1404 ft 3 kts 62°
2026-04-30 08:30 47.46288 8.54797 1404 ft 3 kts 26°
2026-04-30 08:30 47.46269 8.54789 1404 ft 3 kts
2026-04-30 08:30 47.46249 8.54790 1404 ft 3 kts 348°
2026-04-30 08:30 47.46230 8.54798 1404 ft 3 kts 338°
2026-04-30 08:31 47.46223 8.54803 1405 ft 1 kts 334°
2026-04-30 08:33 47.46227 8.54800 1404 ft 4 kts 334°
2026-04-30 08:33 47.46267 8.54771 1404 ft 9 kts 334°
2026-04-30 08:34 47.46340 8.54719 1386 ft 14 kts 335°
2026-04-30 08:34 47.46435 8.54655 1403 ft 15 kts 335°
2026-04-30 08:34 47.46525 8.54592 1398 ft 14 kts 335°
2026-04-30 08:34 47.46615 8.54531 1402 ft 15 kts 335°
2026-04-30 08:35 47.46698 8.54473 1385 ft 14 kts 336°
2026-04-30 08:35 47.46792 8.54420 1384 ft 15 kts 341°
2026-04-30 08:35 47.46901 8.54349 1384 ft 17 kts 335°
2026-04-30 08:35 47.47008 8.54275 1386 ft 17 kts 334°
2026-04-30 08:36 47.47108 8.54204 1387 ft 16 kts 335°
2026-04-30 08:36 47.47205 8.54140 1399 ft 15 kts 336°
2026-04-30 08:36 47.47299 8.54077 1402 ft 15 kts 335°
2026-04-30 08:36 47.47387 8.54015 1402 ft 13 kts 334°
2026-04-30 08:37 47.47467 8.53959 1408 ft 12 kts 335°
2026-04-30 08:37 47.47539 8.53908 1410 ft 11 kts 335°
2026-04-30 08:37 47.47605 8.53830 1411 ft 14 kts 290°
2026-04-30 08:37 47.47593 8.53700 1411 ft 8 kts 244°
2026-04-30 08:38 47.47574 8.53644 1408 ft 7 kts 240°
2026-04-30 08:38 47.47533 8.53617 1407 ft 9 kts 163°
2026-04-30 08:38 47.47508 8.53635 1402 ft 7 kts 152°
2026-04-30 08:38 47.47231 8.53829 1404 ft 85 kts 154°
2026-04-30 08:39 47.46481 8.54347 1384 ft 148 kts 155°
2026-04-30 08:39 47.45430 8.55071 1437 ft 180 kts 149°
2026-04-30 08:39 47.44306 8.55819 2015 ft 172 kts 150°
2026-04-30 08:39 47.43228 8.56555 2642 ft 169 kts 151°
2026-04-30 08:40 47.42175 8.57277 3120 ft 173 kts 152°
2026-04-30 08:40 47.41024 8.58010 3317 ft 188 kts 153°
2026-04-30 08:40 47.39848 8.58950 3463 ft 196 kts 132°
2026-04-30 08:40 47.39206 8.60703 3552 ft 200 kts 97°
2026-04-30 08:41 47.39289 8.62764 3636 ft 205 kts 78°
2026-04-30 08:41 47.39707 8.64866 3708 ft 225 kts 71°
2026-04-30 08:41 47.40526 8.66925 3911 ft 243 kts 46°
2026-04-30 08:41 47.41912 8.68342 4466 ft 238 kts 38°
2026-04-30 08:42 47.43169 8.69859 5365 ft 228 kts 44°
2026-04-30 08:42 47.44293 8.71393 6215 ft 221 kts 45°
2026-04-30 08:42 47.45419 8.72955 6900 ft 223 kts 48°
2026-04-30 08:42 47.46285 8.74810 7503 ft 222 kts 71°
2026-04-30 08:43 47.46511 8.77064 8045 ft 227 kts 88°
2026-04-30 08:43 47.46591 8.79496 8283 ft 248 kts 86°